FENGYUN 1C DEB

Satellite information

Favourite Embed

Satellite Type and Status

DEBRISIN ORBIT

Key statistics

Satellite FENGYUN 1C DEB at a glance.

Uptime

9556

Days in orbit

Revolutions

≈ 14.4

Per day

Orbit

SSO

Sun Synchronous Orbit

Inclination

99.0

Latest

Satellite identification and parameters

Extended collection of information and parameters for FENGYUN 1C DEB.

Object identification

Identified? True

Debris? True

Object name: FENGYUN 1C DEB

International designator: 1999-025BMT

Object number (NORAD): 31261

Object ID (CCSDS): 31261

Country: PEOPLES REPUBLIC OF CHINA (PRC)

Current information (Y/N): Y

RCS size: SMALL

Orbital parameters

Period: 100.083 minutes

Inclination: 98.9967 deg

SMA: 7140.567 km

Apoapsis: 799.968 km

Periapsis: 724.897 km

RAAN: 131.6964 deg

Eccentricy: 0.0052567

Argument of periapsis: 347.2739 deg

Mean anomaly: 12.7116 deg

Mean motion: 14.38810763 rev/day

Mean motion (dot): 0.00002029 rev/day2

B* drag term: 0.00066489 1/REarth

Two-line elements (TLE)

Creation date: July 5, 2025, 5:45 p.m.

Reference frame: TEME

Reference center: EARTH

Epoch: July 5, 2025, 7:17 a.m. UTC

TLE line 0: 0 FENGYUN 1C DEB

TLE line 1: 1 31261U 99025BMT 25186.30402475 .00002029 00000-0 66489-3 0 9994

TLE line 2: 2 31261 98.9967 131.6964 0052567 347.2739 12.7116 14.38810763950422

Live tracking on map

Real-time ground track for satellite FENGYUN 1C DEB.

In-orbit conjunctions

A list of the most updated potential collisions computed for object FENGYUN 1C DEB.

Target Orbit TCA Probability of collision Miss distance Type
FENGYUN 1C DEB SSO 2024-09-25 05:51:46 0.0002176304 523.0 (m) DEBRIS
CBERS 1 SSO 2024-07-04 14:01:13 0.001230514 126.0 (m) PAYLOAD

Associated space launch

Chinese polar orbiting meteorological satellite

FENGYUN 1C DEB was lifted into orbit during the mission ‘Long March 4B | Feng Yun 1C’, on board a Long March 4B space rocket.

The launch took place on May 10, 1999, 1:33 a.m. from Launch Complex 7.

For more information about the launch, click the button.

Launch to space Long March 4B | Feng Yun 1C
Long March 4B | Feng Yun 1C

Agency: N/A

Status: Launch Successful

Launch date: May 10, 1999, 1:33 a.m. UTC

Rocket: Long March 4B

Launch pad: Launch Complex 7

Location: Taiyuan Satellite Launch Center, People's Republic of China

...

Latest news about this satellite

There are no fresh news available about this satellite. Check back as we update our databases every day.


Newsletter sign-up

Weekly statistics, charts and insights to help you stay on top of the space industry.